Location: Doschendorf
(50.0069°N, 11.0602°E)
Time: 01:39:18
(UTC+00:00)

NOSS 2-3 (C) - Pass Details

Date: 17 November 2019
Orbit: 594 x 1618 km, 63.4° (Epoch: 04 December)

Event Time Altitude Azimuth Distance (km) Brightness Sun altitude
Rises 17:20:58 0° 206° (SSW) 2,842 7.5 -17.7°
Reaches altitude 10° 17:23:06 10° 202° (SSW) 1,983 6.5 -18.0°
Maximum altitude 17:27:23 55° 125° (SE) 822 3.9 -18.7°
Enters shadow 17:28:59 37° 69° (ENE) 1,095 4.3 -18.9°
